No particular awareness of the weather is required.    There are no Weather-warnings


Meteo18 Weather Cam more information Meteo18 Weather Cam


Thunder radar more information blitzortung!


Rain radar more information rain snow radar


Visit our other weather sites:

Template documentation
and downloads

And another site



Weather Underground History page Text

Daily Summary for July 27, 2017 Units:  Metric    English   Both
« Previous Day
Next Day »
Daily Weekly Monthly Yearly Custom
  High: Low: Average:
Temperature: 22.0 °C 16.2 °C 18.4 °C
Dew Point: 19.4 °C 15.1 °C 16.9 °C
Humidity: 96 % 78 % 91 %
Wind Speed: 27.4 km/h 0.0 km/h 7.2 km/h
Wind Gust: 33.8 km/h - -
Wind:- - WSW
Pressure: 1014.8 hPa 1011.7 hPa -
Precipitation: 5.8 mm    
Historical Graphs
 
 
Tabular Data for July 27, 2017
Time Temperature Dew Point Pressure Wind Wind Speed Wind Gust Humidity Rainfall Rate (Hourly)
00:02 18.1 °C 16.9 °C 1014.4 hPa SSW 14.5 km/h 16.1 km/h 93 % 0.0 mm
00:12 18.1 °C 16.9 °C 1014.4 hPa SSW 8.0 km/h 16.1 km/h 93 % 0.0 mm
00:17 18.1 °C 16.9 °C 1014.8 hPa WSW 3.2 km/h 19.3 km/h 93 % 0.0 mm
00:22 18.1 °C 16.9 °C 1014.8 hPa SW 4.8 km/h 12.9 km/h 93 % 0.0 mm
00:32 18.0 °C 16.9 °C 1014.8 hPa SW 4.8 km/h 14.5 km/h 93 % 0.0 mm
00:37 18.0 °C 16.9 °C 1014.8 hPa WSW 4.8 km/h 14.5 km/h 93 % 0.0 mm
00:42 18.0 °C 16.9 °C 1014.8 hPa SW 9.7 km/h 14.5 km/h 93 % 0.0 mm
00:47 17.9 °C 16.6 °C 1014.8 hPa SSW 4.8 km/h 14.5 km/h 92 % 0.0 mm
00:52 17.9 °C 16.6 °C 1014.8 hPa West 9.7 km/h 16.1 km/h 92 % 0.0 mm
01:02 17.8 °C 16.5 °C 1014.4 hPa SSW 3.2 km/h 16.1 km/h 92 % 0.0 mm
01:12 17.6 °C 16.3 °C 1014.4 hPa WSW 3.2 km/h 16.1 km/h 92 % 0.0 mm
01:17 17.5 °C 16.2 °C 1014.4 hPa WSW 3.2 km/h 12.9 km/h 92 % 0.0 mm
01:22 17.4 °C 16.1 °C 1014.4 hPa SW 12.9 km/h 12.9 km/h 92 % 0.0 mm
01:27 17.4 °C 16.1 °C 1014.4 hPa SSW 4.8 km/h 12.9 km/h 92 % 0.0 mm
01:32 17.3 °C 16.0 °C 1014.4 hPa SW 4.8 km/h 12.9 km/h 92 % 0.0 mm
01:37 17.3 °C 16.2 °C 1014.4 hPa SW 4.8 km/h 12.9 km/h 93 % 0.0 mm
01:42 17.2 °C 16.1 °C 1014.4 hPa SW 8.0 km/h 12.9 km/h 93 % 0.0 mm
01:47 17.2 °C 16.1 °C 1014.4 hPa SSW 1.6 km/h 12.9 km/h 93 % 0.0 mm
01:52 17.1 °C 16.0 °C 1014.4 hPa SW 8.0 km/h 12.9 km/h 93 % 0.0 mm
01:57 17.1 °C 16.0 °C 1014.4 hPa SW 4.8 km/h 11.3 km/h 93 % 0.0 mm
02:02 17.0 °C 15.9 °C 1014.4 hPa SSW 1.6 km/h 11.3 km/h 93 % 0.0 mm
02:12 16.9 °C 15.8 °C 1014.4 hPa SW 4.8 km/h 11.3 km/h 93 % 0.0 mm
02:17 16.9 °C 15.8 °C 1014.4 hPa SW 6.4 km/h 12.9 km/h 93 % 0.0 mm
02:22 16.9 °C 15.6 °C 1014.4 hPa SW 4.8 km/h 14.5 km/h 92 % 0.0 mm
02:27 16.9 °C 15.6 °C 1014.4 hPa SSW 3.2 km/h 14.5 km/h 92 % 0.0 mm
02:32 16.8 °C 15.5 °C 1014.4 hPa SW 8.0 km/h 14.5 km/h 92 % 0.0 mm
02:37 16.8 °C 15.5 °C 1014.4 hPa SW 3.2 km/h 11.3 km/h 92 % 0.0 mm
02:42 16.7 °C 15.4 °C 1014.4 hPa WSW 9.7 km/h 11.3 km/h 92 % 0.0 mm
02:47 16.7 °C 15.4 °C 1014.4 hPa WSW 4.8 km/h 11.3 km/h 92 % 0.0 mm
02:52 16.7 °C 15.4 °C 1014.4 hPa SW 4.8 km/h 11.3 km/h 92 % 0.0 mm
03:02 16.7 °C 15.4 °C 1014.1 hPa SW 4.8 km/h 12.9 km/h 92 % 0.0 mm
03:07 16.7 °C 15.4 °C 1014.1 hPa SW 1.6 km/h 14.5 km/h 92 % 0.0 mm
03:12 16.7 °C 15.4 °C 1014.1 hPa SW 6.4 km/h 14.5 km/h 92 % 0.0 mm
03:17 16.7 °C 15.4 °C 1014.1 hPa SSW 3.2 km/h 14.5 km/h 92 % 0.0 mm
03:22 16.7 °C 15.4 °C 1014.1 hPa SW 3.2 km/h 12.9 km/h 92 % 0.0 mm
03:32 16.7 °C 15.4 °C 1014.1 hPa SW 6.4 km/h 16.1 km/h 92 % 0.0 mm
03:37 16.7 °C 15.4 °C 1014.1 hPa WSW 8.0 km/h 16.1 km/h 92 % 0.0 mm
03:47 16.7 °C 15.4 °C 1014.1 hPa SSW 4.8 km/h 16.1 km/h 92 % 0.0 mm
03:52 16.7 °C 15.4 °C 1014.1 hPa SW 6.4 km/h 12.9 km/h 92 % 0.0 mm
04:02 16.6 °C 15.5 °C 1013.8 hPa SW 6.4 km/h 9.7 km/h 93 % 0.0 mm
04:12 16.6 °C 15.5 °C 1013.8 hPa West 4.8 km/h 11.3 km/h 93 % 0.0 mm
04:17 16.6 °C 15.5 °C 1013.8 hPa SSW 4.8 km/h 11.3 km/h 93 % 0.0 mm
04:22 16.6 °C 15.5 °C 1014.1 hPa SW 4.8 km/h 9.7 km/h 93 % 0.0 mm
04:32 16.6 °C 15.5 °C 1014.1 hPa SW 4.8 km/h 12.9 km/h 93 % 0.0 mm
04:37 16.7 °C 15.6 °C 1014.1 hPa SW 8.0 km/h 12.9 km/h 93 % 0.0 mm
04:42 16.7 °C 15.6 °C 1014.1 hPa SW 6.4 km/h 16.1 km/h 93 % 0.0 mm
04:47 16.7 °C 15.6 °C 1013.8 hPa SSE 4.8 km/h 16.1 km/h 93 % 0.0 mm
04:52 16.6 °C 15.5 °C 1013.8 hPa SW 8.0 km/h 16.1 km/h 93 % 0.0 mm
04:57 16.6 °C 15.5 °C 1013.8 hPa SW 3.2 km/h 16.1 km/h 93 % 0.0 mm
05:02 16.6 °C 15.5 °C 1013.8 hPa WSW 4.8 km/h 17.7 km/h 93 % 0.0 mm
05:12 16.5 °C 15.4 °C 1013.8 hPa SSW 3.2 km/h 17.7 km/h 93 % 0.0 mm
05:17 16.5 °C 15.4 °C 1013.8 hPa South 1.6 km/h 17.7 km/h 93 % 0.0 mm
05:22 16.5 °C 15.2 °C 1013.8 hPa SW 8.0 km/h 12.9 km/h 92 % 0.0 mm
05:32 16.4 °C 15.3 °C 1013.8 hPa SSW 1.6 km/h 11.3 km/h 93 % 0.0 mm
05:37 16.4 °C 15.3 °C 1013.8 hPa SW 4.8 km/h 11.3 km/h 93 % 0.0 mm
05:42 16.4 °C 15.3 °C 1013.8 hPa West 1.6 km/h 8.0 km/h 93 % 0.0 mm
05:47 16.4 °C 15.3 °C 1013.8 hPa SW 1.6 km/h 8.0 km/h 93 % 0.0 mm
05:57 16.4 °C 15.1 °C 1013.8 hPa SW 3.2 km/h 6.4 km/h 92 % 0.0 mm
06:02 16.4 °C 15.1 °C 1013.8 hPa SW 4.8 km/h 11.3 km/h 92 % 0.0 mm
06:12 16.4 °C 15.1 °C 1013.8 hPa SW 3.2 km/h 16.1 km/h 92 % 0.0 mm
06:17 16.4 °C 15.1 °C 1013.8 hPa WSW 4.8 km/h 16.1 km/h 92 % 0.0 mm
06:22 16.4 °C 15.1 °C 1013.8 hPa SW 3.2 km/h 11.3 km/h 92 % 0.0 mm
06:32 16.4 °C 15.3 °C 1013.8 hPa WSW 3.2 km/h 11.3 km/h 93 % 0.0 mm
06:37 16.4 °C 15.3 °C 1013.8 hPa SW 6.4 km/h 8.0 km/h 93 % 0.0 mm
06:42 16.4 °C 15.3 °C 1013.8 hPa WSW 4.8 km/h 8.0 km/h 93 % 0.0 mm
06:47 16.4 °C 15.3 °C 1013.8 hPa WSW 8.0 km/h 8.0 km/h 93 % 0.0 mm
06:52 16.4 °C 15.3 °C 1013.8 hPa WSW 3.2 km/h 14.5 km/h 93 % 0.0 mm
06:57 16.3 °C 15.3 °C 1013.8 hPa SW 4.8 km/h 14.5 km/h 94 % 0.0 mm
07:02 16.3 °C 15.3 °C 1013.8 hPa SW 8.0 km/h 14.5 km/h 94 % 0.0 mm
07:12 16.3 °C 15.3 °C 1013.8 hPa SW 9.7 km/h 14.5 km/h 94 % 0.0 mm
07:17 16.3 °C 15.3 °C 1013.8 hPa SW 4.8 km/h 14.5 km/h 94 % 0.0 mm
07:22 16.3 °C 15.3 °C 1013.8 hPa WSW 8.0 km/h 14.5 km/h 94 % 0.0 mm
07:32 16.3 °C 15.5 °C 1013.8 hPa SW 8.0 km/h 14.5 km/h 95 % 0.0 mm
07:37 16.3 °C 15.5 °C 1013.8 hPa SSW 6.4 km/h 14.5 km/h 95 % 0.0 mm
07:42 16.2 °C 15.4 °C 1013.8 hPa WSW 14.5 km/h 16.1 km/h 95 % 0.0 mm
07:47 16.2 °C 15.4 °C 1013.8 hPa SSW 4.8 km/h 16.1 km/h 95 % 0.0 mm
07:52 16.2 °C 15.4 °C 1013.8 hPa SSW 11.3 km/h 17.7 km/h 95 % 0.0 mm
08:02 16.2 °C 15.6 °C 1014.1 hPa SW 11.3 km/h 17.7 km/h 96 % 0.0 mm
08:12 16.2 °C 15.6 °C 1013.8 hPa SW 11.3 km/h 17.7 km/h 96 % 0.0 mm
08:17 16.2 °C 15.6 °C 1014.1 hPa WSW 9.7 km/h 17.7 km/h 96 % 0.0 mm
08:27 16.2 °C 15.6 °C 1014.1 hPa SW 8.0 km/h 16.1 km/h 96 % 0.5 mm
08:32 16.2 °C 15.6 °C 1014.1 hPa SW 6.4 km/h 19.3 km/h 96 % 0.5 mm
08:42 16.3 °C 15.7 °C 1014.1 hPa SSW 8.0 km/h 16.1 km/h 96 % 0.5 mm
08:52 16.4 °C 15.8 °C 1014.1 hPa South 8.0 km/h 16.1 km/h 96 % 0.8 mm
08:57 16.4 °C 15.8 °C 1014.1 hPa SW 12.9 km/h 16.1 km/h 96 % 0.8 mm
09:02 16.4 °C 15.8 °C 1014.1 hPa WSW 9.7 km/h 20.9 km/h 96 % 0.8 mm
09:12 16.4 °C 15.8 °C 1013.8 hPa SW 9.7 km/h 20.9 km/h 96 % 0.8 mm
09:17 16.4 °C 15.8 °C 1014.1 hPa SW 9.7 km/h 20.9 km/h 96 % 0.8 mm
09:22 16.4 °C 15.8 °C 1014.1 hPa WSW 4.8 km/h 20.9 km/h 96 % 0.5 mm
09:27 16.4 °C 15.8 °C 1014.1 hPa WSW 9.7 km/h 20.9 km/h 96 % 0.5 mm
09:32 16.4 °C 15.8 °C 1014.1 hPa WSW 12.9 km/h 20.9 km/h 96 % 0.3 mm
09:42 16.6 °C 16.0 °C 1014.1 hPa SW 9.7 km/h 20.9 km/h 96 % 0.3 mm
09:52 16.6 °C 16.0 °C 1014.1 hPa SW 6.4 km/h 20.9 km/h 96 % 0.0 mm
09:57 16.7 °C 16.1 °C 1014.1 hPa WSW 8.0 km/h 20.9 km/h 96 % 0.0 mm
10:02 16.7 °C 16.1 °C 1014.1 hPa SW 9.7 km/h 20.9 km/h 96 % 0.3 mm
10:12 16.8 °C 16.2 °C 1014.1 hPa SW 6.4 km/h 17.7 km/h 96 % 0.3 mm
10:17 16.8 °C 16.2 °C 1014.1 hPa SW 14.5 km/h 17.7 km/h 96 % 0.3 mm
10:22 16.8 °C 16.2 °C 1014.1 hPa SW 6.4 km/h 19.3 km/h 96 % 0.5 mm
10:32 16.9 °C 16.3 °C 1014.1 hPa SW 9.7 km/h 22.5 km/h 96 % 0.5 mm
10:37 17.0 °C 16.4 °C 1014.1 hPa SW 11.3 km/h 22.5 km/h 96 % 0.5 mm
10:42 17.1 °C 16.5 °C 1013.8 hPa WSW 4.8 km/h 22.5 km/h 96 % 0.5 mm
10:47 17.1 °C 16.5 °C 1013.8 hPa SW 8.0 km/h 22.5 km/h 96 % 0.5 mm
10:52 17.1 °C 16.5 °C 1014.1 hPa SW 11.3 km/h 16.1 km/h 96 % 0.5 mm
10:57 17.2 °C 16.6 °C 1014.1 hPa SW 12.9 km/h 16.1 km/h 96 % 0.5 mm
11:02 17.1 °C 16.5 °C 1014.1 hPa SW 12.9 km/h 22.5 km/h 96 % 0.5 mm
11:07 17.2 °C 16.6 °C 1014.1 hPa SSW 4.8 km/h 22.5 km/h 96 % 0.5 mm
11:12 17.2 °C 16.6 °C 1013.8 hPa SW 16.1 km/h 22.5 km/h 96 % 0.5 mm
11:17 17.2 °C 16.6 °C 1013.8 hPa SW 9.7 km/h 22.5 km/h 96 % 0.5 mm
11:22 17.3 °C 16.7 °C 1013.8 hPa SW 9.7 km/h 22.5 km/h 96 % 0.5 mm
11:27 17.4 °C 16.8 °C 1013.8 hPa WSW 12.9 km/h 22.5 km/h 96 % 0.5 mm
11:32 17.5 °C 16.9 °C 1013.8 hPa SW 16.1 km/h 24.1 km/h 96 % 0.5 mm
11:37 17.6 °C 17.0 °C 1013.4 hPa SSW 12.9 km/h 24.1 km/h 96 % 0.5 mm
11:42 17.7 °C 17.1 °C 1013.8 hPa SW 27.4 km/h 27.4 km/h 96 % 0.5 mm
11:47 17.6 °C 16.8 °C 1013.4 hPa SW 14.5 km/h 27.4 km/h 95 % 0.5 mm
11:52 17.7 °C 17.1 °C 1013.4 hPa SW 11.3 km/h 27.4 km/h 96 % 0.5 mm
12:02 17.6 °C 16.8 °C 1013.4 hPa SSW 8.0 km/h 25.7 km/h 95 % 0.5 mm
12:12 17.7 °C 16.9 °C 1013.4 hPa SSW 9.7 km/h 25.7 km/h 95 % 0.5 mm
12:17 17.8 °C 17.0 °C 1013.4 hPa WSW 14.5 km/h 25.7 km/h 95 % 0.5 mm
12:22 17.8 °C 17.2 °C 1013.4 hPa South 17.7 km/h 24.1 km/h 96 % 0.3 mm
12:32 17.9 °C 17.3 °C 1013.1 hPa WSW 12.9 km/h 24.1 km/h 96 % 0.3 mm
12:37 17.9 °C 17.1 °C 1013.1 hPa WSW 14.5 km/h 25.7 km/h 95 % 0.3 mm
12:42 18.1 °C 17.5 °C 1013.1 hPa SW 11.3 km/h 25.7 km/h 96 % 0.3 mm
12:47 18.1 °C 17.3 °C 1013.1 hPa SW 20.9 km/h 25.7 km/h 95 % 0.3 mm
12:52 18.2 °C 17.6 °C 1013.1 hPa SW 12.9 km/h 25.7 km/h 96 % 0.3 mm
13:02 18.2 °C 17.4 °C 1013.1 hPa SW 12.9 km/h 25.7 km/h 95 % 0.3 mm
13:12 18.2 °C 17.4 °C 1013.1 hPa SW 9.7 km/h 25.7 km/h 95 % 0.3 mm
13:17 18.2 °C 17.4 °C 1013.1 hPa WSW 11.3 km/h 25.7 km/h 95 % 0.3 mm
13:27 18.4 °C 17.6 °C 1012.8 hPa SW 11.3 km/h 24.1 km/h 95 % 0.3 mm
13:32 18.4 °C 17.6 °C 1012.8 hPa SW 11.3 km/h 22.5 km/h 95 % 0.3 mm
13:37 18.4 °C 17.6 °C 1012.8 hPa WSW 9.7 km/h 22.5 km/h 95 % 0.3 mm
13:42 18.5 °C 17.8 °C 1012.8 hPa SW 3.2 km/h 22.5 km/h 96 % 0.0 mm
13:52 18.6 °C 17.8 °C 1012.8 hPa SW 9.7 km/h 22.5 km/h 95 % 0.0 mm
13:57 18.7 °C 17.9 °C 1012.8 hPa WSW 11.3 km/h 22.5 km/h 95 % 0.0 mm
14:02 18.8 °C 18.0 °C 1012.8 hPa WSW 8.0 km/h 25.7 km/h 95 % 0.0 mm
14:12 18.8 °C 18.0 °C 1012.8 hPa WSW 14.5 km/h 27.4 km/h 95 % 0.3 mm
14:17 19.0 °C 18.2 °C 1012.8 hPa SW 6.4 km/h 27.4 km/h 95 % 0.3 mm
14:22 19.2 °C 18.4 °C 1012.8 hPa West 12.9 km/h 30.6 km/h 95 % 0.3 mm
14:32 19.2 °C 18.2 °C 1012.8 hPa WSW 11.3 km/h 25.7 km/h 94 % 0.3 mm
14:37 19.4 °C 18.4 °C 1012.4 hPa SW 14.5 km/h 25.7 km/h 94 % 0.3 mm
14:42 19.6 °C 18.4 °C 1012.4 hPa WSW 9.7 km/h 24.1 km/h 93 % 0.3 mm
14:47 19.8 °C 18.5 °C 1012.4 hPa SW 8.0 km/h 24.1 km/h 92 % 0.3 mm
14:52 20.0 °C 18.7 °C 1012.4 hPa SW 16.1 km/h 22.5 km/h 92 % 0.3 mm
15:02 19.9 °C 18.4 °C 1012.4 hPa WSW 20.9 km/h 24.1 km/h 91 % 0.3 mm
15:12 19.8 °C 18.3 °C 1012.4 hPa WSW 12.9 km/h 24.1 km/h 91 % 0.0 mm
15:17 20.2 °C 18.9 °C 1012.4 hPa SW 6.4 km/h 24.1 km/h 92 % 0.3 mm
15:22 20.4 °C 18.5 °C 1012.4 hPa SW 11.3 km/h 20.9 km/h 89 % 0.3 mm
15:27 20.5 °C 18.6 °C 1012.4 hPa WSW 11.3 km/h 22.5 km/h 89 % 0.3 mm
15:32 20.8 °C 18.9 °C 1012.1 hPa SW 9.7 km/h 22.5 km/h 89 % 0.3 mm
15:42 20.5 °C 18.4 °C 1012.1 hPa WSW 27.4 km/h 27.4 km/h 88 % 0.3 mm
15:47 20.1 °C 18.2 °C 1012.4 hPa SSW 6.4 km/h 33.8 km/h 89 % 0.3 mm
15:52 20.1 °C 18.6 °C 1012.1 hPa SSW 16.1 km/h 33.8 km/h 91 % 0.3 mm
16:02 20.2 °C 18.7 °C 1012.4 hPa West 9.7 km/h 29.0 km/h 91 % 0.3 mm
16:12 19.6 °C 17.6 °C 1012.1 hPa WNW 17.7 km/h 32.2 km/h 88 % 0.3 mm
16:17 19.5 °C 17.8 °C 1012.1 hPa WNW 12.9 km/h 32.2 km/h 90 % 0.0 mm
16:22 19.6 °C 17.9 °C 1012.1 hPa West 9.7 km/h 24.1 km/h 90 % 0.0 mm
16:27 19.8 °C 18.1 °C 1012.1 hPa West 9.7 km/h 24.1 km/h 90 % 0.0 mm
16:32 19.9 °C 18.2 °C 1012.1 hPa West 6.4 km/h 20.9 km/h 90 % 0.0 mm
16:37 20.1 °C 18.2 °C 1012.1 hPa WSW 8.0 km/h 19.3 km/h 89 % 0.0 mm
16:42 20.2 °C 18.5 °C 1012.1 hPa West 3.2 km/h 19.3 km/h 90 % 0.0 mm
16:47 20.2 °C 18.3 °C 1011.7 hPa WSW 6.4 km/h 19.3 km/h 89 % 0.0 mm
16:52 20.3 °C 18.4 °C 1012.1 hPa WNW 12.9 km/h 12.9 km/h 89 % 0.0 mm
16:57 19.9 °C 18.2 °C 1012.1 hPa WNW 12.9 km/h 12.9 km/h 90 % 1.3 mm
17:02 19.6 °C 18.3 °C 1012.1 hPa West 6.4 km/h 19.3 km/h 92 % 1.3 mm
17:12 19.3 °C 18.0 °C 1012.1 hPa West 6.4 km/h 19.3 km/h 92 % 2.0 mm
17:17 19.4 °C 18.2 °C 1012.1 hPa West 11.3 km/h 16.1 km/h 93 % 3.3 mm
17:22 19.5 °C 18.3 °C 1012.1 hPa West 8.0 km/h 17.7 km/h 93 % 3.3 mm
17:27 19.7 °C 18.5 °C 1012.1 hPa West 6.4 km/h 17.7 km/h 93 % 3.3 mm
17:32 19.9 °C 18.6 °C 1012.1 hPa SW 6.4 km/h 17.7 km/h 92 % 3.3 mm
17:37 20.3 °C 19.0 °C 1012.1 hPa SW 8.0 km/h 19.3 km/h 92 % 3.3 mm
17:42 20.4 °C 19.1 °C 1012.1 hPa SW 8.0 km/h 19.3 km/h 92 % 3.3 mm
17:47 20.4 °C 18.9 °C 1012.1 hPa West 4.8 km/h 22.5 km/h 91 % 3.3 mm
17:52 20.5 °C 19.2 °C 1012.1 hPa SSW 4.8 km/h 24.1 km/h 92 % 3.3 mm
17:57 20.7 °C 19.2 °C 1012.1 hPa WSW 8.0 km/h 24.1 km/h 91 % 1.5 mm
18:02 20.8 °C 19.3 °C 1012.1 hPa WSW 9.7 km/h 24.1 km/h 91 % 1.5 mm
18:12 21.0 °C 19.3 °C 1012.1 hPa WSW 4.8 km/h 20.9 km/h 90 % 1.5 mm
18:17 21.1 °C 19.4 °C 1012.1 hPa WSW 4.8 km/h 19.3 km/h 90 % 0.3 mm
18:22 21.1 °C 19.4 °C 1012.1 hPa WSW 8.0 km/h 19.3 km/h 90 % 0.3 mm
18:27 21.1 °C 19.4 °C 1012.1 hPa West 4.8 km/h 17.7 km/h 90 % 0.0 mm
18:32 21.1 °C 19.2 °C 1011.7 hPa SW 3.2 km/h 17.7 km/h 89 % 0.0 mm
18:42 21.3 °C 19.4 °C 1011.7 hPa SW 3.2 km/h 14.5 km/h 89 % 0.0 mm
18:52 21.5 °C 19.4 °C 1011.7 hPa SW 6.4 km/h 14.5 km/h 88 % 0.0 mm
18:57 21.7 °C 19.4 °C 1011.7 hPa West 8.0 km/h 12.9 km/h 87 % 0.0 mm
19:02 21.9 °C 19.3 °C 1011.7 hPa SW 9.7 km/h 12.9 km/h 85 % 0.0 mm
19:07 21.9 °C 19.3 °C 1011.7 hPa West 4.8 km/h 17.7 km/h 85 % 0.0 mm
19:12 21.9 °C 18.9 °C 1011.7 hPa WNW 3.2 km/h 17.7 km/h 83 % 0.0 mm
19:17 22.0 °C 19.0 °C 1011.7 hPa West 9.7 km/h 17.7 km/h 83 % 0.0 mm
19:22 22.0 °C 18.8 °C 1011.7 hPa WSW 8.0 km/h 16.1 km/h 82 % 0.0 mm
19:27 21.9 °C 18.5 °C 1011.7 hPa West 4.8 km/h 20.9 km/h 81 % 0.0 mm
19:32 21.9 °C 18.7 °C 1011.7 hPa West 4.8 km/h 20.9 km/h 82 % 0.0 mm
19:37 21.9 °C 18.7 °C 1011.7 hPa WNW 4.8 km/h 17.7 km/h 82 % 0.0 mm
19:42 21.9 °C 18.9 °C 1011.7 hPa SW 3.2 km/h 14.5 km/h 83 % 0.0 mm
19:47 21.9 °C 18.5 °C 1011.7 hPa WSW 3.2 km/h 14.5 km/h 81 % 0.0 mm
19:52 21.9 °C 18.5 °C 1011.7 hPa WSW 6.4 km/h 12.9 km/h 81 % 0.0 mm
19:57 21.9 °C 18.5 °C 1011.7 hPa WNW 3.2 km/h 17.7 km/h 81 % 0.0 mm
20:02 21.9 °C 18.5 °C 1011.7 hPa WSW 8.0 km/h 17.7 km/h 81 % 0.0 mm
20:12 21.8 °C 18.4 °C 1011.7 hPa WSW 4.8 km/h 17.7 km/h 81 % 0.0 mm
20:17 21.7 °C 18.1 °C 1012.1 hPa West 4.8 km/h 9.7 km/h 80 % 0.0 mm
20:22 21.6 °C 18.0 °C 1012.1 hPa WSW 4.8 km/h 11.3 km/h 80 % 0.0 mm
20:32 21.4 °C 17.6 °C 1012.1 hPa West 3.2 km/h 11.3 km/h 79 % 0.0 mm
20:42 21.2 °C 17.6 °C 1012.1 hPa WNW 1.6 km/h 11.3 km/h 80 % 0.0 mm
20:47 21.1 °C 17.5 °C 1012.1 hPa SW 3.2 km/h 8.0 km/h 80 % 0.0 mm
20:52 21.0 °C 17.4 °C 1012.4 hPa West 3.2 km/h 8.0 km/h 80 % 0.0 mm
20:57 20.9 °C 17.3 °C 1012.4 hPa WSW 4.8 km/h 8.0 km/h 80 % 0.0 mm
21:02 20.8 °C 17.2 °C 1012.4 hPa WSW 4.8 km/h 8.0 km/h 80 % 0.0 mm
21:12 20.7 °C 17.1 °C 1012.8 hPa WSW 1.6 km/h 9.7 km/h 80 % 0.0 mm
21:17 20.7 °C 16.9 °C 1012.8 hPa Calm   9.7 km/h 79 % 0.0 mm
21:27 20.6 °C 16.8 °C 1012.8 hPa West 6.4 km/h 8.0 km/h 79 % 0.0 mm
21:32 20.6 °C 16.6 °C 1012.8 hPa WNW 4.8 km/h 8.0 km/h 78 % 0.0 mm
21:37 20.5 °C 16.7 °C 1012.8 hPa NW 3.2 km/h 9.7 km/h 79 % 0.0 mm
21:42 20.3 °C 16.9 °C 1012.8 hPa NW 3.2 km/h 9.7 km/h 81 % 0.0 mm
21:47 20.1 °C 16.9 °C 1012.8 hPa NW 3.2 km/h 9.7 km/h 82 % 0.0 mm
21:52 19.9 °C 16.9 °C 1012.8 hPa Calm   8.0 km/h 83 % 0.0 mm
21:57 19.8 °C 17.0 °C 1013.1 hPa NNW 1.6 km/h 6.4 km/h 84 % 0.0 mm
22:02 19.7 °C 17.1 °C 1013.1 hPa Calm   6.4 km/h 85 % 0.0 mm
22:12 19.4 °C 16.8 °C 1013.4 hPa NNW 6.4 km/h 6.4 km/h 85 % 0.0 mm
22:17 19.3 °C 16.7 °C 1013.4 hPa NW 3.2 km/h 4.8 km/h 85 % 0.0 mm
22:22 19.2 °C 16.6 °C 1013.4 hPa West 1.6 km/h 6.4 km/h 85 % 0.0 mm
22:32 19.2 °C 16.6 °C 1013.8 hPa Calm   6.4 km/h 85 % 0.0 mm
22:42 19.1 °C 16.5 °C 1013.8 hPa Calm   3.2 km/h 85 % 0.0 mm
22:47 19.0 °C 16.4 °C 1013.8 hPa Calm   3.2 km/h 85 % 0.0 mm
22:52 18.9 °C 16.5 °C 1013.8 hPa NNW 1.6 km/h 3.2 km/h 86 % 0.0 mm
22:57 18.8 °C 16.4 °C 1013.8 hPa NNW 1.6 km/h 1.6 km/h 86 % 0.0 mm
23:02 18.8 °C 16.4 °C 1013.8 hPa NNW 1.6 km/h 3.2 km/h 86 % 0.0 mm
23:12 18.7 °C 16.3 °C 1013.8 hPa Calm   3.2 km/h 86 % 0.0 mm
23:17 18.6 °C 16.4 °C 1013.8 hPa Calm   1.6 km/h 87 % 0.0 mm
23:22 18.6 °C 16.4 °C 1014.1 hPa Calm   1.6 km/h 87 % 0.0 mm
23:27 18.5 °C 16.5 °C 1014.1 hPa Calm   1.6 km/h 88 % 0.0 mm
23:37 18.3 °C 16.5 °C 1014.1 hPa Calm     89 % 0.0 mm
23:42 18.2 °C 16.5 °C 1014.4 hPa Calm     90 % 0.0 mm
23:52 18.1 °C 16.4 °C 1014.4 hPa Calm     90 % 0.0 mm
Meteo18
Compliments of Weather Underground - 4 mb

Script developed by  Jim McMurry - jmcmurry@mwt.net Adapted for the template by  Wim van der Kuil - Leuven-Template.eu

You find our weather info also at:

European Weather Network

Weather Underground

Equipment we use:

Weather-station
Davis Vue

Weather-program
Meteohub

Weather-server
Raspberry PI 2 B+

Provider
1 and 1

Davis Vue

Meteohub

Raspberry PI 2 B+

1 and 1